• In Russia
  • List of Countries
  • For 7 days
  • Water Temperature
  • Satellite Maps
  • Weather Map
  • Weather Widgets
  • user-avatar
    Login

    Hourly Weather Shaki

    Today, 25 June, Sunday

    Time Temperature Precipitation Wind Pressure Humidity
    00:00 +19°C° 0 mm 1 mps 732 mmHg 50%
    01:00 +19°C° 0 mm 1 mps 732 mmHg 48%
    02:00 +19°C° 0 mm 1 mps 732 mmHg 47%
    03:00 +19°C° 0 mm 1 mps 731 mmHg 51%
    04:00 +21°C° 0 mm 1 mps 732 mmHg 49%
    05:00 +23°C° 0 mm 1 mps 732 mmHg 47%
    06:00 +24°C° 0 mm 1 mps 732 mmHg 45%
    07:00 +26°C° 0 mm 1 mps 732 mmHg 37%
    08:00 +28°C° 0 mm 2 mps 733 mmHg 30%
    09:00 +30°C° 0 mm 3 mps 733 mmHg 23%
    10:00 +31°C° 0 mm 3 mps 733 mmHg 22%
    11:00 +33°C° 0 mm 3 mps 733 mmHg 20%
    12:00 +34°C° 0 mm 4 mps 733 mmHg 19%
    13:00 +34°C° 0 mm 3 mps 733 mmHg 19%
    14:00 +34°C° 0 mm 3 mps 732 mmHg 19%
    15:00 +35°C° 0 mm 3 mps 732 mmHg 19%
    16:00 +34°C° 0 mm 2 mps 733 mmHg 23%
    17:00 +32°C° 0 mm 2 mps 733 mmHg 26%
    18:00 +31°C° 0 mm 1 mps 733 mmHg 30%
    19:00 +28°C° 0 mm 1 mps 734 mmHg 34%
    20:00 +25°C° 0 mm 1 mps 734 mmHg 37%
    21:00 +21°C° 0 mm 2 mps 734 mmHg 41%
    22:00 +22°C° 0 mm 1 mps 735 mmHg 47%
    23:00 +21°C° 0 mm 1 mps 735 mmHg 53%

    Tomorrow, 26 June, Monday

    Time Temperature Precipitation Wind Pressure Humidity
    00:00 +21°C° 0 mm 1 mps 735 mmHg 58%
    01:00 +20°C° 0 mm 1 mps 735 mmHg 62%
    02:00 +20°C° 0 mm 1 mps 735 mmHg 66%
    03:00 +20°C° 0 mm 1 mps 736 mmHg 70%
    04:00 +21°C° 0 mm 1 mps 736 mmHg 66%
    05:00 +21°C° 0 mm 0 mps 737 mmHg 62%
    06:00 +23°C° 0 mm 0 mps 737 mmHg 59%
    07:00 +26°C° 0 mm 1 mps 737 mmHg 55%
    08:00 +28°C° 0 mm 2 mps 737 mmHg 51%
    09:00 +29°C° 0 mm 2 mps 737 mmHg 47%
    10:00 +30°C° 0 mm 3 mps 737 mmHg 44%
    11:00 +31°C° 0 mm 3 mps 737 mmHg 41%
    12:00 +33°C° 0 mm 3 mps 737 mmHg 38%
    13:00 +33°C° 0 mm 3 mps 737 mmHg 37%
    14:00 +34°C° 0 mm 4 mps 736 mmHg 37%
    15:00 +34°C° 0 mm 4 mps 736 mmHg 36%
    16:00 +33°C° 0 mm 4 mps 736 mmHg 38%
    17:00 +33°C° 0 mm 4 mps 736 mmHg 40%
    18:00 +32°C° 0 mm 4 mps 736 mmHg 42%
    19:00 +28°C° 0 mm 4 mps 736 mmHg 49%
    20:00 +26°C° 0 mm 4 mps 737 mmHg 56%
    21:00 +24°C° 0 mm 3 mps 737 mmHg 63%
    22:00 +22°C° 0 mm 3 mps 737 mmHg 65%
    23:00 +21°C° 0 mm 3 mps 737 mmHg 68%

    Day after tomorrow, 27 June, Tuesday

    Time Temperature Precipitation Wind Pressure Humidity
    00:00 +20°C° 0 mm 2 mps 737 mmHg 71%
    01:00 +20°C° 0 mm 2 mps 736 mmHg 72%
    02:00 +20°C° 0 mm 2 mps 736 mmHg 74%
    03:00 +20°C° 0 mm 1 mps 736 mmHg 75%
    04:00 +22°C° 0 mm 1 mps 736 mmHg 70%
    05:00 +23°C° 0 mm 1 mps 736 mmHg 65%
    06:00 +25°C° 0 mm 1 mps 736 mmHg 61%
    07:00 +26°C° 0 mm 1 mps 736 mmHg 53%
    08:00 +28°C° 0 mm 1 mps 736 mmHg 46%
    09:00 +30°C° 0 mm 1 mps 735 mmHg 39%
    10:00 +31°C° 0 mm 1 mps 735 mmHg 36%
    11:00 +32°C° 0 mm 2 mps 735 mmHg 33%
    12:00 +35°C° 0 mm 2 mps 734 mmHg 30%
    13:00 +35°C° 0 mm 2 mps 734 mmHg 29%
    14:00 +36°C° 0 mm 2 mps 733 mmHg 28%
    15:00 +36°C° 0 mm 2 mps 733 mmHg 27%
    16:00 +35°C° 0 mm 2 mps 733 mmHg 29%
    17:00 +35°C° 0 mm 2 mps 733 mmHg 32%
    18:00 +34°C° 0 mm 2 mps 733 mmHg 34%
    19:00 +30°C° 0 mm 2 mps 733 mmHg 40%
    20:00 +28°C° 0 mm 2 mps 733 mmHg 46%
    21:00 +25°C° 0 mm 2 mps 734 mmHg 52%
    22:00 +25°C° 0 mm 2 mps 733 mmHg 54%
    23:00 +24°C° 0 mm 2 mps 733 mmHg 55%

    28 June, Wednesday

    Time Temperature Precipitation Wind Pressure Humidity
    00:00 +23°C° 0 mm 2 mps 733 mmHg 57%
    01:00 +23°C° 0 mm 1 mps 733 mmHg 57%
    02:00 +22°C° 0 mm 1 mps 733 mmHg 57%
    03:00 +22°C° 0 mm 1 mps 733 mmHg 58%
    04:00 +23°C° 0 mm 1 mps 733 mmHg 54%
    05:00 +25°C° 0 mm 1 mps 733 mmHg 50%
    06:00 +27°C° 0 mm 1 mps 733 mmHg 46%
    07:00 +29°C° 0 mm 1 mps 733 mmHg 40%
    08:00 +31°C° 0 mm 1 mps 733 mmHg 35%
    09:00 +33°C° 0 mm 1 mps 733 mmHg 29%
    10:00 +35°C° 0 mm 2 mps 733 mmHg 27%
    11:00 +36°C° 0 mm 2 mps 732 mmHg 26%
    12:00 +37°C° 0 mm 2 mps 732 mmHg 24%
    13:00 +38°C° 0 mm 2 mps 732 mmHg 23%
    14:00 +38°C° 0 mm 2 mps 731 mmHg 22%
    15:00 +38°C° 0 mm 2 mps 731 mmHg 22%
    16:00 +37°C° 0 mm 2 mps 731 mmHg 25%
    17:00 +37°C° 0 mm 2 mps 731 mmHg 28%
    18:00 +35°C° 0 mm 1 mps 731 mmHg 30%
    19:00 +32°C° 0 mm 2 mps 731 mmHg 36%
    20:00 +29°C° 0 mm 2 mps 731 mmHg 42%
    21:00 +26°C° 0 mm 2 mps 732 mmHg 48%
    22:00 +25°C° 0 mm 2 mps 732 mmHg 50%
    23:00 +25°C° 0 mm 1 mps 732 mmHg 51%

    29 June, Thursday

    Time Temperature Precipitation Wind Pressure Humidity
    00:00 +24°C° 0 mm 1 mps 732 mmHg 53%
    01:00 +23°C° 0 mm 1 mps 732 mmHg 54%
    02:00 +23°C° 0 mm 1 mps 732 mmHg 55%
    03:00 +22°C° 0 mm 1 mps 731 mmHg 56%
    04:00 +24°C° 0 mm 1 mps 732 mmHg 52%
    05:00 +26°C° 0 mm 1 mps 732 mmHg 48%
    06:00 +28°C° 0 mm 1 mps 733 mmHg 44%
    07:00 +30°C° 0 mm 1 mps 733 mmHg 37%
    08:00 +32°C° 0 mm 1 mps 733 mmHg 31%
    09:00 +35°C° 0 mm 2 mps 733 mmHg 25%
    10:00 +35°C° 0 mm 2 mps 733 mmHg 23%
    11:00 +36°C° 0 mm 2 mps 733 mmHg 22%
    12:00 +37°C° 0 mm 2 mps 733 mmHg 21%
    13:00 +38°C° 0 mm 2 mps 732 mmHg 21%
    14:00 +38°C° 0 mm 2 mps 732 mmHg 21%
    15:00 +38°C° 0 mm 2 mps 732 mmHg 21%
    16:00 +37°C° 0 mm 2 mps 732 mmHg 23%
    17:00 +36°C° 0 mm 2 mps 732 mmHg 25%
    18:00 +36°C° 0 mm 2 mps 732 mmHg 27%
    19:00 +32°C° 0.1 mm 2 mps 732 mmHg 32%
    20:00 +29°C° 0.1 mm 2 mps 732 mmHg 37%
    21:00 +27°C° 0.1 mm 2 mps 733 mmHg 42%
    22:00 +26°C° 0 mm 2 mps 733 mmHg 43%
    23:00 +26°C° 0 mm 2 mps 733 mmHg 43%

    30 June, Friday

    Time Temperature Precipitation Wind Pressure Humidity
    00:00 +26°C° 0 mm 2 mps 733 mmHg 43%
    01:00 +25°C° 0 mm 2 mps 733 mmHg 45%
    02:00 +25°C° 0 mm 2 mps 733 mmHg 47%
    03:00 +24°C° 0 mm 2 mps 733 mmHg 49%
    04:00 +25°C° 0 mm 1 mps 733 mmHg 48%
    05:00 +27°C° 0 mm 1 mps 733 mmHg 47%
    06:00 +28°C° 0 mm 1 mps 734 mmHg 46%
    07:00 +29°C° 0 mm 1 mps 734 mmHg 40%
    08:00 +31°C° 0 mm 1 mps 734 mmHg 34%
    09:00 +33°C° 0 mm 1 mps 734 mmHg 29%
    10:00 +34°C° 0.2 mm 1 mps 734 mmHg 28%
    11:00 +35°C° 0.2 mm 1 mps 734 mmHg 27%
    12:00 +36°C° 0.2 mm 1 mps 734 mmHg 26%
    13:00 +37°C° 0.5 mm 2 mps 733 mmHg 28%
    14:00 +37°C° 0.5 mm 2 mps 733 mmHg 29%
    15:00 +37°C° 0.5 mm 2 mps 733 mmHg 31%
    16:00 +36°C° 0.5 mm 3 mps 733 mmHg 33%
    17:00 +35°C° 0.5 mm 4 mps 733 mmHg 36%
    18:00 +34°C° 0.5 mm 4 mps 733 mmHg 38%
    19:00 +32°C° 0.1 mm 4 mps 734 mmHg 41%
    20:00 +30°C° 0.1 mm 4 mps 734 mmHg 44%
    21:00 +28°C° 0.1 mm 3 mps 735 mmHg 46%
    22:00 +28°C° 0 mm 3 mps 735 mmHg 47%
    23:00 +27°C° 0 mm 3 mps 735 mmHg 48%
    Show more